Showing default

NANOFF A, 58810

Orbit data source: Space-Track

NANOFF A, 58810 is a payload satellite owned by TUB (DE) in SSO that was launched on Fri, 01 Dec 2023 UTC via an FALCON 9 launch vehicle from the Air Force Western Test Range (AFWTR). Payload-class satellites include a variety of spacecraft equipped with specific instruments for various scientific and technological missions. These include communications satellites like Starlink; space stations such as the ISS; scientific satellites like the Hubble; Earth observation satellites from companies like Planet Labs, Umbra, and HawkEye 360; GPS; miniature CubeSats for education and research; and military/defense satellites.

Loading next visibility...
Identifier
58810, 2023-185T
Orbit
SSO
Country
Flag of DEDE / GER
Related business
Manufacturer
TUB
Mission
Operational Amateur Technology
Bus & Motor
CUBESAT 2U, Unknown motor
Mass
2.7 kg wet, 2.7 kg dry
Launch date (UTC)
2023-12-01 (3 years ago)
Launch vehicle
FALCON 9
Launch site
Air Force Western Test Range (AFWTR)
Object type
Payload
Rocket body
Debris
Shape & HBR
Box + 2 Pan, 0.3 m
Radar Cross Section
0.046 m², Medium (>0.1 m² and < 1m²)

Expand to show TLE details & history
Last TLE update: 1 week ago

TLE from 1 week ago
0 NANOFF A
1 58810U 23185T   26155.22067547  .00003809  00000-0  22414-3 0  9999
2 58810  97.5261 222.8502 0009888   2.4891 357.6387 15.12203663131083
Epoch: 2026-06-04T05:17Z
TLE epoch observation values (Epoch: 2026-06-04T05:17:46.360Z)
Latitude
-0.00003°
Longitude
-109.26102°
Altitude
525.731 km
Speed
7.604 km/s
True Right ascension
14h 51m 24s
True Declination
0° 00' 00"
Sunlit
Object was in full shadow at epoch
Visualization orbit readout
Latitude
Unknown
Longitude
Unknown
Altitude
Unknown
Speed
Unknown
Apparent Right ascension
Unknown
Apparent Declination
Unknown
Sunlit
N/A
Visualization observer readout
Local Sidereal Time
07:28:43
Azimuth
Unknown
Elevation
Unknown
Doppler factor
Unknown
Orbital elements
Apogee altitude
533.29 km
Perigee altitude
519.635 km
Semi-major axis
6,904.599 km
Eccentricity
0.00099
Inclination
97.5261°
RAAN
222.8502°
Arg. of periapsis
2.4891°
True anomaly
357.63403°
Mean anomaly
357.6387°
Eccentric anomaly
357.63636°
Mean motion
3.78299 °/min
Orbital period
95.16 mins
BSTAR
0.00022414
Loading maneuver chart data...
Computing Atmospheric mass density...
Loading historical data...
Loading historical data...
Loading historical data...
Loading historical data...
Loading historical data...
Loading historical data...
Loading historical data...

Documentation

Showing up to 5 results
|